• In Uzbekistan
  • List of Countries
  • For 7 days
  • Water Temperature
  • Satellite Maps
  • Weather Map
  • Weather Widgets
  • user-avatar
    Login

    Hourly Weather Nakhchivan

    Today, 23 July, Tuesday

    Time Temperature Precipitation Wind Pressure Humidity
    00:00 +31°C° 0 mm 2 mps 684 mmHg 42%
    01:00 +30°C° 0 mm 2 mps 684 mmHg 44%
    02:00 +30°C° 0 mm 2 mps 684 mmHg 46%
    03:00 +29°C° 0 mm 1 mps 684 mmHg 49%
    04:00 +29°C° 0 mm 1 mps 684 mmHg 49%
    05:00 +29°C° 0 mm 1 mps 684 mmHg 50%
    06:00 +29°C° 0 mm 1 mps 684 mmHg 50%
    07:00 +30°C° 0 mm 1 mps 684 mmHg 47%
    08:00 +31°C° 0 mm 2 mps 684 mmHg 43%
    09:00 +32°C° 0 mm 2 mps 684 mmHg 39%
    10:00 +35°C° 0 mm 3 mps 684 mmHg 34%
    11:00 +37°C° 0 mm 3 mps 684 mmHg 29%
    12:00 +40°C° 0 mm 4 mps 684 mmHg 24%
    13:00 +41°C° 0 mm 5 mps 684 mmHg 22%
    14:00 +43°C° 0 mm 5 mps 684 mmHg 20%
    15:00 +45°C° 0 mm 6 mps 683 mmHg 18%
    16:00 +44°C° 0 mm 7 mps 683 mmHg 19%
    17:00 +43°C° 0 mm 7 mps 683 mmHg 20%
    18:00 +41°C° 0 mm 8 mps 683 mmHg 21%
    19:00 +39°C° 0 mm 6 mps 683 mmHg 25%
    20:00 +36°C° 0 mm 5 mps 683 mmHg 29%
    21:00 +34°C° 0 mm 3 mps 683 mmHg 33%
    22:00 +33°C° 0 mm 3 mps 683 mmHg 34%
    23:00 +31°C° 0 mm 2 mps 683 mmHg 36%

    Tomorrow, 24 July, Wednesday

    Time Temperature Precipitation Wind Pressure Humidity
    00:00 +30°C° 0 mm 1 mps 683 mmHg 38%
    01:00 +29°C° 0 mm 1 mps 683 mmHg 40%
    02:00 +28°C° 0 mm 1 mps 683 mmHg 41%
    03:00 +28°C° 0 mm 1 mps 683 mmHg 43%
    04:00 +28°C° 0 mm 1 mps 683 mmHg 44%
    05:00 +28°C° 0 mm 1 mps 683 mmHg 45%
    06:00 +28°C° 0 mm 1 mps 683 mmHg 46%
    07:00 +29°C° 0 mm 1 mps 684 mmHg 43%
    08:00 +31°C° 0 mm 1 mps 684 mmHg 40%
    09:00 +32°C° 0 mm 2 mps 684 mmHg 36%
    10:00 +34°C° 0 mm 1 mps 684 mmHg 32%
    11:00 +35°C° 0 mm 1 mps 684 mmHg 27%
    12:00 +37°C° 0 mm 1 mps 684 mmHg 23%
    13:00 +40°C° 0 mm 2 mps 684 mmHg 18%
    14:00 +41°C° 0 mm 2 mps 684 mmHg 13%
    15:00 +44°C° 0 mm 3 mps 684 mmHg 9%
    16:00 +43°C° 0 mm 4 mps 684 mmHg 8%
    17:00 +44°C° 0 mm 6 mps 684 mmHg 8%
    18:00 +43°C° 0 mm 8 mps 684 mmHg 7%
    19:00 +40°C° 0 mm 6 mps 684 mmHg 10%
    20:00 +37°C° 0 mm 5 mps 684 mmHg 12%
    21:00 +34°C° 0 mm 3 mps 684 mmHg 14%
    22:00 +32°C° 0 mm 2 mps 684 mmHg 17%
    23:00 +31°C° 0 mm 2 mps 684 mmHg 20%

    Day after tomorrow, 25 July, Thursday

    Time Temperature Precipitation Wind Pressure Humidity
    00:00 +30°C° 0 mm 1 mps 684 mmHg 23%
    01:00 +29°C° 0 mm 1 mps 684 mmHg 25%
    02:00 +28°C° 0 mm 1 mps 684 mmHg 27%
    03:00 +27°C° 0 mm 1 mps 684 mmHg 29%
    04:00 +28°C° 0 mm 1 mps 684 mmHg 28%
    05:00 +26°C° 0 mm 0 mps 685 mmHg 28%
    06:00 +27°C° 0 mm 0 mps 685 mmHg 28%
    07:00 +29°C° 0 mm 0 mps 685 mmHg 23%
    08:00 +31°C° 0 mm 0 mps 686 mmHg 19%
    09:00 +35°C° 0 mm 1 mps 686 mmHg 15%
    10:00 +36°C° 0 mm 1 mps 686 mmHg 12%
    11:00 +37°C° 0 mm 1 mps 686 mmHg 10%
    12:00 +40°C° 0 mm 1 mps 686 mmHg 8%
    13:00 +42°C° 0 mm 3 mps 685 mmHg 7%
    14:00 +42°C° 0 mm 5 mps 685 mmHg 7%
    15:00 +44°C° 0 mm 6 mps 685 mmHg 6%
    16:00 +44°C° 0 mm 6 mps 685 mmHg 6%
    17:00 +42°C° 0 mm 6 mps 684 mmHg 7%
    18:00 +43°C° 0 mm 7 mps 684 mmHg 7%
    19:00 +40°C° 0 mm 5 mps 684 mmHg 9%
    20:00 +37°C° 0 mm 4 mps 685 mmHg 11%
    21:00 +35°C° 0 mm 3 mps 685 mmHg 13%
    22:00 +32°C° 0 mm 2 mps 685 mmHg 18%
    23:00 +31°C° 0 mm 2 mps 685 mmHg 23%

    26 July, Friday

    Time Temperature Precipitation Wind Pressure Humidity
    00:00 +30°C° 0 mm 2 mps 685 mmHg 28%
    01:00 +29°C° 0 mm 2 mps 685 mmHg 31%
    02:00 +28°C° 0 mm 2 mps 685 mmHg 34%
    03:00 +27°C° 0 mm 2 mps 684 mmHg 37%
    04:00 +27°C° 0 mm 2 mps 685 mmHg 39%
    05:00 +27°C° 0 mm 3 mps 685 mmHg 41%
    06:00 +26°C° 0 mm 3 mps 685 mmHg 44%
    07:00 +28°C° 0 mm 3 mps 685 mmHg 40%
    08:00 +29°C° 0 mm 3 mps 685 mmHg 37%
    09:00 +31°C° 0 mm 3 mps 685 mmHg 34%
    10:00 +32°C° 0 mm 2 mps 685 mmHg 31%
    11:00 +35°C° 0 mm 2 mps 685 mmHg 28%
    12:00 +36°C° 0 mm 2 mps 685 mmHg 25%
    13:00 +37°C° 0 mm 2 mps 684 mmHg 22%
    14:00 +39°C° 0 mm 2 mps 684 mmHg 18%
    15:00 +40°C° 0 mm 3 mps 684 mmHg 15%
    16:00 +39°C° 0 mm 3 mps 684 mmHg 17%
    17:00 +40°C° 0 mm 4 mps 684 mmHg 19%
    18:00 +38°C° 0 mm 4 mps 683 mmHg 20%
    19:00 +36°C° 0 mm 4 mps 684 mmHg 26%
    20:00 +34°C° 0 mm 4 mps 684 mmHg 31%
    21:00 +30°C° 0 mm 4 mps 684 mmHg 36%
    22:00 +29°C° 0 mm 3 mps 684 mmHg 39%
    23:00 +28°C° 0 mm 3 mps 684 mmHg 43%

    27 July, Saturday

    Time Temperature Precipitation Wind Pressure Humidity
    00:00 +27°C° 0 mm 2 mps 684 mmHg 46%
    01:00 +26°C° 0 mm 2 mps 684 mmHg 48%
    02:00 +26°C° 0 mm 2 mps 684 mmHg 51%
    03:00 +25°C° 0 mm 1 mps 684 mmHg 53%
    04:00 +25°C° 0 mm 1 mps 684 mmHg 53%
    05:00 +25°C° 0 mm 1 mps 684 mmHg 53%
    06:00 +25°C° 0 mm 1 mps 684 mmHg 53%
    07:00 +27°C° 0 mm 1 mps 684 mmHg 49%
    08:00 +28°C° 0 mm 1 mps 684 mmHg 44%
    09:00 +29°C° 0 mm 2 mps 684 mmHg 40%
    10:00 +31°C° 0 mm 2 mps 684 mmHg 36%
    11:00 +34°C° 0 mm 3 mps 684 mmHg 33%
    12:00 +35°C° 0 mm 3 mps 684 mmHg 29%
    13:00 +36°C° 0 mm 4 mps 683 mmHg 26%
    14:00 +37°C° 0 mm 4 mps 683 mmHg 24%
    15:00 +39°C° 0 mm 5 mps 683 mmHg 22%
    16:00 +38°C° 0 mm 4 mps 682 mmHg 23%
    17:00 +37°C° 0 mm 4 mps 682 mmHg 23%
    18:00 +37°C° 0 mm 4 mps 682 mmHg 24%
    19:00 +35°C° 0 mm 4 mps 682 mmHg 28%
    20:00 +33°C° 0 mm 4 mps 682 mmHg 32%
    21:00 +30°C° 0 mm 3 mps 682 mmHg 35%
    22:00 +29°C° 0 mm 3 mps 682 mmHg 38%
    23:00 +28°C° 0 mm 3 mps 682 mmHg 40%

    28 July, Sunday

    Time Temperature Precipitation Wind Pressure Humidity
    00:00 +27°C° 0 mm 2 mps 682 mmHg 43%
    01:00 +26°C° 0 mm 2 mps 681 mmHg 45%
    02:00 +26°C° 0 mm 2 mps 681 mmHg 47%
    03:00 +25°C° 0 mm 1 mps 681 mmHg 49%
    04:00 +25°C° 0 mm 1 mps 681 mmHg 49%
    05:00 +25°C° 0 mm 1 mps 681 mmHg 49%
    06:00 +25°C° 0 mm 1 mps 682 mmHg 49%
    07:00 +26°C° 0 mm 1 mps 682 mmHg 45%
    08:00 +28°C° 0 mm 1 mps 682 mmHg 42%
    09:00 +29°C° 0 mm 1 mps 682 mmHg 38%
    10:00 +31°C° 0 mm 1 mps 682 mmHg 34%
    11:00 +32°C° 0 mm 1 mps 681 mmHg 31%
    12:00 +34°C° 0 mm 1 mps 681 mmHg 27%
    13:00 +36°C° 0 mm 2 mps 681 mmHg 24%
    14:00 +38°C° 0 mm 2 mps 681 mmHg 21%
    15:00 +39°C° 0 mm 3 mps 681 mmHg 19%
    16:00 +39°C° 0 mm 3 mps 681 mmHg 19%
    17:00 +38°C° 0 mm 3 mps 681 mmHg 19%
    18:00 +38°C° 0 mm 4 mps 681 mmHg 19%
    19:00 +36°C° 0 mm 3 mps 681 mmHg 24%
    20:00 +34°C° 0 mm 3 mps 681 mmHg 29%
    21:00 +31°C° 0 mm 3 mps 681 mmHg 34%
    22:00 +30°C° 0 mm 3 mps 681 mmHg 36%
    23:00 +29°C° 0 mm 2 mps 681 mmHg 38%
    Show more